sat.trackr.live / text

‹ back to catalog

STARLINK-5737

NORAD 55570 · 2023-020B

PAYLOAD ACTIVE UNKNOWN

§ Identity

Operator
Country
US
Launch date
2023-02-12
Launch site
AFETR
Launch vehicle
Mass (kg)
RCS (m²)

Purposes: comms

External: N2YO · Heavens-Above · Gunter

§ Orbital elements

Epoch: 2026-09-20T16:24:25.068672Z

Period
94.27 min
Inclination
43.0059°
Eccentricity
0.0001838
Mean motion
15.27569797 rev/d
Perigee alt
481.8 km
Apogee alt
484.3 km
Semi-major
6,861.2 km
B*
-2.0767e-5
RAAN
344.0646°
Arg perigee
284.5101°
Mean anomaly
75.5546°
Rev number
19,873

§ Raw data

STARLINK-57371 55570U 23020B   26263.68362348 -.00000834  00000+0 -20767-4 0  99902 55570  43.0059 344.0646 0001838 284.5101  75.5546 15.27569797198731

JSON: /api/v1/satellites/55570 · /tle

For live sub-satellite position, see the globe view (requires WebGL).

§ Visibility from observer

Set your observer location to see the next 7 days of passes ≥ 10°. The values pass through the URL so the page stays shareable.

No JS? Fill the form by hand. The geolocation button needs JavaScript.